This demonstration page uses our WeatherBlox Daily Observations layout. Learn more.

Left ArrowRight Arrow

53.62937, 11.41316

Hourly Observations for September 10, 2015

Temp ( °F °C ) Dew Point ( °F °C ) Humidity (%) Winds ( mph kmh ) Pressure ( in mb ) Visibility ( mi km ) Precip ( " mm )
6:20 am 06:20 Mostly Clear 39 4 39 4 100 100 VRB 1 2 30.33 1027 7 11 N/A
6:50 am 06:50 Mostly Sunny 39 4 39 4 100 100 E 1 2 30.33 1027 7 11 N/A
7:20 am 07:20 Mostly Sunny 39 4 39 4 100 100 E 2 4 30.33 1027 7 11 N/A
7:50 am 07:50 Mostly Sunny 43 6 43 6 100 100 VRB 1 2 30.33 1027 7 11 N/A
8:20 am 08:20 Mostly Sunny 48 9 48 9 100 100 Calm 30.33 1027 7 11 N/A
8:50 am 08:50 Mostly Sunny 52 11 52 11 100 100 VRB 1 2 30.33 1027 7 11 N/A
9:20 am 09:20 Mostly Sunny 55 13 54 12 94 94 ENE 8 13 30.33 1027 7 11 N/A
9:50 am 09:50 Mostly Sunny 57 14 52 11 82 82 ENE 8 13 30.33 1027 7 11 N/A
10:20 am 10:20 Mostly Sunny 59 15 54 12 82 82 ENE 10 17 30.33 1027 7 11 N/A
10:50 am 10:50 Mostly Sunny 61 16 52 11 72 72 ENE 10 17 30.33 1027 30 48 N/A
11:20 am 11:20 Mostly Sunny 63 17 52 11 68 68 ENE 13 20 30.33 1027 30 48 N/A
11:50 am 11:50 Mostly Sunny 63 17 52 11 68 68 E 12 19 30.33 1027 30 48 N/A
12:20 pm 12:20 Mostly Sunny 64 18 50 10 60 60 E 12 19 30.33 1027 30 48 N/A
12:50 pm 12:50 Partly Cloudy 64 18 48 9 56 56 E 12 19 30.33 1027 30 48 N/A
1:20 pm 13:20 Partly Cloudy 64 18 50 10 60 60 E 12 19 30.33 1027 30 48 N/A
1:50 pm 13:50 Partly Cloudy 63 17 48 9 59 59 ENE 14 22 30.30 1026 30 48 N/A
2:20 pm 14:20 Partly Cloudy 64 18 48 9 56 56 ENE 15 24 30.30 1026 30 48 N/A
2:50 pm 14:50 Partly Cloudy 64 18 50 10 60 60 E 10 17 30.30 1026 30 48 N/A
3:20 pm 15:20 Partly Cloudy 66 19 50 10 56 56 ENE 13 20 30.30 1026 30 48 N/A
3:50 pm 15:50 Partly Cloudy 64 18 48 9 56 56 E 13 20 30.27 1025 30 48 N/A
4:20 pm 16:20 Mostly Sunny 64 18 48 9 56 56 E 13 20 30.27 1025 30 48 N/A
4:50 pm 16:50 Mostly Sunny 66 19 48 9 52 52 ENE 13 20 30.27 1025 7 11 N/A
5:20 pm 17:20 Mostly Sunny 66 19 48 9 52 52 ENE 15 24 30.27 1025 7 11 N/A
6:50 pm 18:50 Mostly Sunny 64 18 48 9 56 56 ENE 9 15 30.27 1025 7 11 N/A

Powered by AerisWeather